Location: ?????????
(53.2086°N, 54.0693°E)
Time: 04:37:56
(UTC+00:00)

Cosmos 2344 - Pass Details

Date: 08 December 2019
Orbit: 1256 x 2986 km, 63.3° (Epoch: 21 January)

Event Time Altitude Azimuth Distance (km) Brightness Sun altitude
Rises 13:09:52 0° 287° (WNW) 4,280 7.1 -8.8°
Reaches altitude 10° 13:12:38 10° 294° (WNW) 3,389 6.4 -9.2°
Maximum altitude 13:20:26 46° 7° (N) 2,007 4.4 -10.2°
Enters shadow 13:29:34 13° 77° (ENE) 4,072 5.6 -11.5°
